Location: ????????
(54.6251°N, 38.5561°E)
Time: 13:47:38
(UTC+00:00)

Daily predictions for brighter satellites

Satellite Brightness Start Highest point End
(mag) Time Altitude Azimuth Time Altitude Azimuth Time Altitude Azimuth
Cosmos 1464 Rocket 4.0 13:33:43 10° S 13:39:53 83° E 13:46:03 10° NNE
Cosmos 1892 Rocket 3.6 13:35:33 10° N 13:40:02 71° ENE 13:44:28 10° SSE
SMAP 3.7 13:36:04 10° SE 13:40:12 32° ENE 13:44:21 10° N
Thor Agena Rocket 3.9 13:36:10 10° SE 13:41:05 44° ENE 13:45:59 10° N
Cosmos 2297 Rocket 2.6 13:38:42 10° NNW 13:44:05 42° NE 13:49:27 10° ESE
Cosmos 2151 4.2 13:44:24 10° NNE 13:47:28 20° ENE 13:50:32 10° ESE
Cosmos 1741 Rocket 4.1 13:43:28 10° SSW 13:48:47 90° WNW 13:54:08 10° NNE
Aureole 3 Rocket 4.3 13:45:25 10° SSW 13:49:47 53° WNW 13:55:52 10° N
Cosmos 1092 Rocket 4.0 13:45:11 10° N 13:51:23 71° ENE 13:57:30 10° SSE
CZ-2D R/B 4.1 13:49:26 10° ESE 13:51:44 19° ENE 13:54:03 10° NNE
BlueWalker 3 2.7 13:51:07 10° W 13:54:39 50° SSW 13:58:10 10° ESE
Meteor 2-1 Rocket 4.4 13:50:22 10° S 13:56:18 82° ESE 14:02:10 10° NNE
Cosmos 1743 3.5 13:56:20 10° NNE 13:58:54 21° ENE 14:01:27 10° ESE
Lacrosse 4 Rocket 1.7 13:55:28 10° SSW 13:59:22 47° ESE 14:03:13 10° NE
ATLAS CENTAUR R/B 0.8 13:57:24 10° NW 14:00:39 54° NE 14:03:49 10° ESE
CZ-4C R/B 2.8 13:55:55 10° NW 14:02:06 61° NNE 14:10:01 10° ESE
Cosmos 1484 Rocket 2.4 14:00:03 10° SSE 14:03:34 81° ENE 14:07:06 10° NNW
Iridium 45 4.1 14:02:21 10° S 14:05:29 73° E 14:08:43 10° N
Cosmos 724 4.4 14:01:16 10° NW 14:07:21 63° NE 14:13:16 10° ESE
Cosmos 2034 Rocket 4.1 14:01:19 10° S 14:07:38 88° ESE 14:14:03 10° NNE
JB-3 4.1 14:04:17 10° NNE 14:08:00 84° ESE 14:11:39 10° SSW
Meteor 1-28 Rocket 3.4 14:06:35 10° NNE 14:09:46 39° E 14:12:56 10° S
NOSS 3-3 (A) 4.5 14:05:21 10° NW 14:12:19 80° NE 14:20:45 10° SE
Iridium 51 4.0 14:09:22 10° SSE 14:12:22 45° E 14:15:27 10° NNE
MOS 1 Rocket 3.9 14:10:17 10° SE 14:14:47 38° ENE 14:19:32 10° N
Cosmos 1602 Rocket 4.1 14:10:57 10° N 14:15:01 34° ENE 14:19:02 10° SE
Cosmos 1570 Rocket 4.0 14:09:48 10° NNW 14:15:12 82° ENE 14:20:32 10° SSE
Cosmos 1867 3.8 14:10:01 10° NW 14:15:22 50° NNE 14:20:40 10° ESE
IGS 5A 3.3 14:12:33 10° SSE 14:16:31 86° ENE 14:20:32 10° NNW
Cosmos 1455 Rocket 3.0 14:12:50 10° S 14:17:10 88° WNW 14:21:34 10° NNE
Lacrosse 5 rocket 1.8 14:15:02 10° SW 14:18:34 40° SE 14:21:16 15° E
Cosmos 1844 Rocket 4.4 14:15:15 10° NNW 14:18:48 17° NNE 14:21:38 12° NE
Cosmos 2084 3.5 14:14:55 10° SW 14:19:05 65° SE 14:22:25 15° NE
CENTAUR R/B 2.6 14:14:17 10° SW 14:20:02 71° SE 14:26:39 13° NE
IRS-P3 4.4 14:15:33 10° SE 14:20:33 44° ENE 14:25:36 10° N
Cosmos 2084 Rocket 3.5 14:17:13 10° NW 14:21:22 54° NNE 14:25:30 10° ESE
SAR-Lupe-4 3.8 14:18:08 10° SE 14:21:32 44° ENE 14:24:58 10° N
Cosmos 836 Rocket 4.5 14:18:30 10° NNW 14:23:46 85° ENE 14:29:02 10° SSE
Cosmos 2266 Rocket 4.2 14:19:45 10° N 14:25:44 46° ENE 14:31:34 10° SE
Cosmos 2263 Rocket 3.0 14:20:54 10° NNW 14:25:52 30° NE 14:30:18 12° E
Cosmos 292 Rocket 3.9 14:21:29 10° SSW 14:26:17 78° WNW 14:31:07 10° NNE
Cosmos 1315 Rocket 2.6 14:22:49 10° S 14:26:38 75° ESE 14:30:29 10° NNE
Resurs 01 Rocket 3.5 14:28:00 12° NE 14:28:00 12° NE 14:28:57 10° NNE
SL-16 R/B 2.5 14:21:15 10° NNE 14:27:32 78° ESE 14:33:45 10° SSW
Cosmos 1607 3.9 14:22:20 10° NW 14:28:34 78° NE 14:34:52 10° SE
SAR-Lupe-1 4.3 14:25:15 10° SE 14:28:42 47° ENE 14:32:13 10° N
SJ 16-02 3.7 14:26:14 10° WNW 14:28:46 15° NW 14:31:18 10° N
CZ-2D R/B 4.4 14:25:40 10° ESE 14:29:10 26° ENE 14:32:38 10° N
NOSS 7 (H) 4.5 14:26:28 10° NW 14:29:18 40° NNE 14:31:04 19° E
NOSS 2-2 (E) 4.5 14:27:54 10° SSE 14:30:08 17° SE 14:31:01 16° ESE
YAOGAN 1 3.6 14:29:13 10° ESE 14:32:39 24° ENE 14:36:05 10° N
Intercosmos 24 3.8 14:29:25 10° NNW 14:33:49 89° ENE 14:37:25 10° S
Cosmos 2227 Rocket 2.5 14:29:38 10° NNW 14:35:03 44° NE 14:40:27 10° ESE
Cosmos 1782 3.0 14:31:50 10° SSE 14:35:14 40° E 14:37:56 15° NNE
USA 215 3.3 14:29:44 13° E 14:35:37 74° N 14:42:10 10° W
CORIOLIS 4.2 14:32:01 10° SSE 14:37:21 88° WSW 14:42:45 10° NNW
USA 281 4.5 14:38:01 16° NE 14:40:48 21° NNE 14:45:25 10° NNW
Cosmos 1356 Rocket 3.4 14:36:47 10° SSW 14:40:50 84° WNW 14:44:57 10° NNE
Cosmos 405 Rocket 2.6 14:37:48 10° NNW 14:41:04 66° W 14:44:17 10° S
Cosmos 773 Rocket 4.0 14:36:20 10° NNW 14:41:34 87° WSW 14:46:48 10° SSE
Cosmos 2369 Rocket 3.1 14:36:55 10° WSW 14:42:18 43° NW 14:47:43 10° NNE
Cosmos 1733 1.5 14:43:23 10° NNW 14:45:20 74° W 14:47:14 10° S
SJ-12 3.6 14:43:03 10° SSE 14:46:49 75° ENE 14:50:37 10° NNW
SJ-6F 4.3 14:44:50 10° SSE 14:48:44 60° ENE 14:52:43 10° N
Cosmos 2208 Rocket 4.1 14:43:48 10° NNW 14:48:59 77° WSW 14:54:09 10° SSE
Cosmos 1825 Rocket 4.0 14:45:21 10° N 14:49:27 38° ENE 14:53:30 10° SE
ARIANE 5 R/B 2.5 14:44:24 10° SSE 14:49:27 89° ENE 14:54:37 10° NNW
Cosmos 1933 4.4 14:46:59 10° SE 14:49:46 23° E 14:49:46 23° E
Cosmos 1758 Rocket 3.6 14:46:21 10° NNW 14:50:43 81° W 14:55:00 10° S
Cosmos 2278 Rocket 4.1 14:47:07 10° WNW 14:50:53 18° NNW 14:54:37 10° NNE
Cosmos 1943 Rocket 4.1 14:47:43 10° NW 14:51:13 17° NNW 14:54:43 10° NNE
SPOT 1/Viking Rocket 3.7 14:47:06 10° SE 14:52:07 51° ENE 14:57:10 10° N
GEOS 3 Rocket 3.7 14:48:18 19° NE 14:52:15 74° SE 14:57:38 10° SW
Cosmos 2228 3.1 14:48:01 10° SSW 14:52:15 76° WNW 14:56:32 10° N
Cosmos 2098 Rocket 3.0 14:52:53 10° S 14:56:51 63° E 15:01:34 10° NNE
Cosmos 1697 Rocket 3.7 14:53:19 10° SSE 14:57:39 23° ESE 14:58:26 23° E
Meteor 1-20 Rocket 4.0 14:53:42 10° NNW 14:59:13 76° ENE 15:04:40 10° SSE
BREEZE-M DEB (TANK) 3.5 14:57:07 10° WSW 14:59:58 45° S 15:05:50 15° ESE
AQUARIUS 4.1 15:02:13 10° SSE 15:06:38 84° WSW 15:11:05 10° NNW
NOSS 2-2 (C) 2.5 15:06:38 10° SW 15:09:44 86° SE 15:10:15 58° NE
NOSS 3-2 (C) 3.8 15:09:02 10° S 15:13:39 35° ESE 15:15:10 30° E
USA 290 2.9 15:10:37 10° NW 15:13:50 57° WSW 15:17:02 10° SSE
NOSS 3-2 (A) 3.2 15:09:58 10° SW 15:15:06 71° SE 15:18:17 29° ENE
Cosmos 1655 Rocket 4.0 15:10:01 10° N 15:16:11 57° ENE 15:22:18 10° SSE
Cosmos 783 Rocket 4.5 15:11:56 10° NNW 15:17:17 89° ENE 15:22:36 10° SSE
SMAP 4.3 15:13:00 10° S 15:17:27 44° W 15:21:57 10° NNW
Cosmos 2082 4.3 15:14:17 10° NNW 15:19:34 36° NE 15:20:46 33° ENE
Cosmos 1241 Rocket 4.4 15:13:17 10° SSW 15:19:36 70° SE 15:22:58 29° NE
Cosmos 1538 Rocket 4.2 15:17:59 10° NNW 15:23:05 48° NE 15:25:01 33° ESE
CZ-2D R/B 4.2 15:20:31 10° S 15:23:28 38° W 15:26:27 10° NNW
Cosmos 2151 3.4 15:20:35 10° NNW 15:24:41 61° W 15:28:47 10° S
Cosmos 1606 Rocket 3.6 15:22:45 10° S 15:27:01 53° E 15:27:45 47° ENE
Cosmos 2297 Rocket 3.0 15:22:48 10° NW 15:28:19 52° WSW 15:33:46 10° S
UNK 4.2 15:24:07 10° N 15:28:40 59° WNW 15:33:09 10° SSW
Meteor 1-25 Rocket 4.3 15:23:11 10° NNW 15:29:03 86° W 15:34:52 10° S
BREEZE-M DEB (TANK) 4.2 15:25:52 10° WSW 15:29:09 51° S 15:33:46 23° ESE
Cosmos 1076 Rocket 3.4 15:26:18 10° N 15:30:33 58° ENE 15:32:39 28° SE
Okean 1-7 Rocket 3.7 15:27:06 10° NNW 15:31:31 73° W 15:35:52 10° S
BlueWalker 3 4.4 15:29:06 10° W 15:31:38 18° SW 15:34:09 10° S
Cosmos 1743 4.1 15:29:35 10° NNW 15:32:34 33° W 15:35:31 10° SSW
Cosmos 1656 3.6 15:28:23 10° SSW 15:34:02 90° W 15:37:03 29° NNE
Resurs 1-3 3.4 15:29:56 10° SSE 15:34:13 74° ENE 15:38:33 10° NNW
ATLAS CENTAUR R/B 3.3 15:32:40 10° WNW 15:35:14 21° WSW 15:37:44 10° S
Cosmos 1544 Rocket 4.4 15:31:46 10° SSW 15:36:03 51° WNW 15:40:20 10° N
Cosmos 1503 Rocket 3.9 15:31:16 10° S 15:36:26 62° ESE 15:37:54 44° NE
Lacrosse 4 Rocket 2.6 15:33:38 10° WSW 15:37:21 33° NW 15:38:43 26° N
Meteor 2-10 4.1 15:32:16 10° N 15:37:26 53° ENE 15:39:46 31° SE
OceanSat 1 rocket 4.5 15:34:04 10° SSE 15:38:48 70° ENE 15:43:30 10° NNW
Cosmos 2219 3.3 15:36:33 10° NNW 15:42:11 53° NE 15:43:14 47° E
Cosmos 1461 4.0 15:38:58 10° SSW 15:41:17 28° SSE 15:41:17 28° SSE
SJ-7 4.0 15:42:23 62° SSE 15:42:59 89° WSW 15:46:46 10° NNW
Cosmos 1354 Rocket 4.1 15:38:10 10° S 15:43:16 52° ESE 15:43:36 51° E
Meteor 1-5 Rocket 4.0 15:38:57 10° NNW 15:44:17 87° ENE 15:49:42 10° SSE
SKYMED 2 3.4 15:45:54 67° NE 15:46:20 75° ESE 15:50:40 10° S
Spot 4 Rocket 4.0 15:41:38 10° SSE 15:46:46 82° WSW 15:51:55 10° NNW
CZ-4C R/B 3.4 15:44:03 10° NW 15:50:40 59° SW 15:58:56 10° SSE
COSMO-SKYMED 1 3.8 15:52:52 27° S 15:52:52 27° S 15:54:53 10° S
SL-19 R/B 4.2 15:47:28 10° SSE 15:52:50 85° WSW 15:58:31 10° NNW
Cosmos 1726 Rocket 3.6 15:49:06 10° S 15:53:24 68° SE 15:53:24 68° SE
PSLV R/B 3.4 15:52:38 35° S 15:54:17 79° WSW 15:58:21 10° NNW
Lacrosse 5 rocket 1.6 15:51:46 10° W 15:54:52 56° WNW 15:54:52 56° WNW
Cosmos 44 Rocket 4.3 15:52:15 10° NW 15:56:25 33° N 15:56:25 33° N
Cosmos 2084 4.3 15:54:03 10° W 15:57:58 38° NNW 15:58:08 38° NNW
Cosmos 1777 Rocket 4.0 15:53:21 10° SSW 15:58:38 83° WNW 16:00:11 47° NNE
Cosmos 1980 Rocket 3.8 15:54:07 10° SSE 15:55:56 19° SSE 15:55:56 19° SSE
Cosmos 1867 4.3 15:53:45 10° NW 15:59:03 52° SW 16:03:16 16° SSE
Resurs 01 Rocket 3.4 16:05:25 21° N 16:05:25 21° N 16:06:55 10° N
CZ-2D R/B 4.4 15:59:48 10° S 16:03:53 48° W 16:07:57 10° NNW
Cosmos 1844 Rocket 3.7 15:59:19 10° NNW 16:03:16 31° NNE 16:03:16 31° NNE
YAOGAN 1 3.2 16:04:04 10° S 16:08:14 54° W 16:12:26 10° NNW
Cosmos 2263 Rocket 2.1 16:04:43 10° NW 16:10:26 84° WSW 16:12:02 49° SSE
SL-16 R/B 4.2 16:05:21 10° N 16:10:37 29° NW 16:15:49 10° WSW
CENTAUR R/B 3.2 16:04:53 10° W 16:11:03 53° NNW 16:13:45 37° NNE
Cosmos 1953 Rocket 4.0 16:10:33 10° NNW 16:14:56 62° W 16:16:13 42° SSW
Nadezhda 2 Rocket 4.3 16:10:02 10° N 16:16:13 75° ENE 16:17:08 63° SE
Cosmos 2360 4.5 16:11:37 10° SW 16:17:18 66° NW 16:18:51 47° N
USA 81 4.1 16:12:37 10° N 16:17:54 78° W 16:23:10 10° S
USA 215 3.2 16:17:05 57° ESE 16:18:38 85° SSW 16:25:14 10° WNW
Cosmos 2227 Rocket 3.0 16:13:47 10° NW 16:19:11 48° WSW 16:24:35 10° S
USA 281 3.6 16:24:53 45° NNE 16:24:53 45° NNE 16:30:18 10° NNW
BREEZE-M DEB (TANK) 4.5 16:01:46 10° W 16:26:25 61° SSW 16:28:51 43° SE
Cosmos 2369 Rocket 4.1 16:23:54 10° WNW 16:27:50 19° NNW 16:29:28 17° N
GEOS 3 Rocket 4.4 16:29:20 42° N 16:30:03 44° NNW 16:35:07 10° W
Cosmos 1943 Rocket 4.2 16:33:58 10° NNW 16:36:13 15° N 16:36:13 15° N
Cosmos 2278 Rocket 4.2 16:33:49 10° NNW 16:36:26 16° N 16:36:26 16° N
Cosmos 1697 Rocket 2.9 16:35:23 10° SW 16:40:12 65° WSW 16:40:12 65° WSW
Cosmos 2082 4.5 16:58:22 10° NW 17:02:38 48° WNW 17:02:38 48° WNW
NOSS 3-2 (C) 3.9 16:58:40 10° WSW 17:02:36 50° W 17:02:36 50° W
NOSS 3-2 (A) 4.1 17:00:53 10° W 17:05:38 46° NW 17:05:38 46° NW
Lacrosse 4 Rocket 4.5 17:14:06 10° NW 17:14:13 10° NW 17:14:13 10° NW
Cosmos 2263 Rocket 4.5 17:49:43 10° WNW 17:53:32 19° W 17:53:46 19° WSW
CENTAUR R/B 4.0 17:56:27 10° WNW 18:00:51 36° NW 18:00:51 36° NW
